Wetbulb
46.90 49.84 52.56 56.81 57.99 56.79 57.79 62.22 63.99 64.35 66.89 69.56 68.59 65.84 62.94 61.53 60.34 58.76 56.32 52.31 50.54 48.38
42.30 43.29 45.54 48.94 52.03 55.03 56.67 59.56 61.26 65.13 64.95 66.53 65.17 62.41 61.48 60.62 58.87 57.54 54.60 51.92 50.05 48.02
40.47 41.94 43.27 45.05 47.01 50.43 54.15 56.09 56.88 62.11 65.32 64.46 63.21 61.82 60.53 59.62 57.99 56.06 54.25 51.84 49.98 49.23
40.25 41.26 42.23 43.08 44.70 47.03 50.32 53.21 54.28 60.10 65.00 63.12 61.21 60.69 59.87 58.51 56.92 55.04 54.07 52.75 50.82 49.77
40.22 41.86 42.95 43.69 44.42 45.84 46.78 49.68 52.08 56.41 64.42 62.68 61.90 61.40 59.32 57.72 57.02 55.54 54.35 52.59 51.06 49.49
40.41 42.33 42.47 43.33 44.65 45.67 46.17 47.56 50.53 54.84 65.24 62.00 60.73 60.32 60.43 59.00 57.03 55.11 53.99 53.29 51.22 49.26
39.87 41.44 41.71 43.36 44.20 45.39 46.68 47.53 49.80 53.23 64.74 62.33 60.32 59.87 58.97 57.61 56.32 55.13 53.87 52.08 51.03 49.49
40.25 41.54 41.98 43.81 44.32 45.75 46.07 48.21 51.10 53.07 62.23 61.19 59.93 59.49 57.99 57.03 55.99 54.24 51.52 50.32 50.15 49.34
40.48 40.89 41.33 41.97 44.36 45.52 46.53 47.31 51.39 54.44 60.37 58.92 59.22 54.33 54.79 55.93 54.32 52.56 50.65 49.35 48.83 49.88
39.65 39.68 39.33 41.01 43.85 45.82 46.08 47.21 51.40 57.31 59.10 58.20 58.02 51.56 52.46 53.15 52.66 50.67 49.75 48.26 47.12 49.24
40.16 39.13 38.20 38.54 41.97 45.83 50.16 48.27 52.56 57.54 54.94 52.95 51.36 48.69 48.55 49.80 50.11 48.61 48.44 47.61 46.91 46.75
40.23 38.79 37.19 35.96 40.22 45.86 48.02 47.26 47.13 48.79 49.62 48.45 47.51 46.46 46.62 47.96 47.11 45.30 45.00 45.54 45.05 43.42
40.36 38.54 36.22 35.26 37.92 44.86 44.53 43.63 44.00 43.73 44.25 44.21 42.19 43.06 44.19 45.51 45.02 42.79 41.93 41.66 41.91 42.42
40.54 39.36 37.59 35.50 37.16 38.39 40.83 40.53 39.99 39.81 39.90 39.85 40.38 40.19 40.87 41.83 42.47 42.75 42.21 41.78 40.96 41.07
MSLP
1017.69 1017.21 1016.19 1014.70 1013.59 1012.81 1012.01 1010.47 1009.67 1009.54 1009.01 1008.63 1008.35 1008.78 1009.79 1010.79 1010.94 1008.73 1009.44 1011.73 1012.49 1012.46
1017.62 1016.86 1016.21 1015.39 1014.27 1012.77 1011.65 1010.40 1009.31 1008.44 1008.05 1008.28 1008.36 1008.71 1009.55 1009.64 1010.33 1011.89 1011.35 1011.45 1011.77 1011.95
1017.62 1016.81 1015.93 1014.78 1013.59 1012.60 1011.33 1010.27 1008.92 1008.20 1007.67 1007.88 1008.01 1008.55 1009.32 1009.64 1009.88 1012.14 1013.28 1011.72 1011.03 1011.69
1017.15 1016.25 1015.45 1014.54 1013.24 1012.22 1011.10 1010.01 1009.08 1008.17 1006.90 1007.17 1007.33 1007.43 1008.44 1009.15 1009.04 1010.03 1013.36 1012.49 1011.34 1010.82
1017.12 1015.66 1014.58 1013.67 1012.56 1011.59 1010.54 1009.23 1008.28 1006.97 1005.51 1005.61 1006.08 1006.88 1007.73 1008.38 1007.95 1010.82 1012.72 1012.75 1012.11 1010.48
1016.94 1015.52 1014.11 1012.86 1011.69 1010.76 1009.79 1008.60 1007.21 1006.27 1004.24 1004.34 1004.64 1005.42 1006.51 1006.77 1008.13 1009.61 1011.10 1011.01 1010.96 1011.04
1016.66 1015.33 1014.09 1012.43 1010.93 1009.88 1008.95 1007.83 1006.58 1005.20 1003.23 1002.95 1003.78 1004.24 1005.74 1006.44 1008.26 1008.23 1010.75 1010.80 1010.49 1011.11
1016.32 1014.98 1013.54 1011.81 1010.09 1008.56 1007.61 1006.63 1005.71 1004.55 1002.55 1002.28 1002.85 1003.41 1004.87 1005.91 1007.12 1007.76 1009.65 1010.11 1010.53 1010.74
1015.69 1014.41 1012.87 1011.20 1009.13 1007.27 1005.77 1005.04 1004.20 1003.14 1002.01 1001.69 1001.95 1002.85 1003.77 1004.97 1006.03 1008.33 1008.69 1009.74 1010.66 1011.06
1015.64 1014.00 1012.45 1010.57 1008.05 1005.89 1004.22 1003.39 1002.77 1001.77 1001.03 1001.33 1001.52 1002.37 1003.97 1005.15 1006.58 1008.05 1008.48 1009.37 1010.32 1011.06
1015.26 1013.83 1012.15 1010.04 1007.45 1004.41 1002.06 1001.67 1001.38 1000.91 1000.95 1001.16 1001.78 1002.24 1003.81 1004.90 1006.29 1008.02 1008.89 1009.50 1010.28 1011.35
1015.64 1014.13 1012.69 1010.60 1007.91 1004.91 1002.58 1002.03 1001.63 1001.74 1001.92 1001.39 1002.93 1002.84 1003.35 1005.14 1006.39 1008.42 1009.87 1010.72 1011.22 1012.24
1016.40 1015.08 1013.68 1012.02 1009.78 1007.19 1005.69 1005.21 1004.54 1004.32 1003.97 1004.64 1002.90 1004.22 1004.55 1005.40 1007.01 1008.75 1010.24 1010.98 1012.31 1013.69
1017.28 1016.00 1014.85 1013.79 1012.30 1010.34 1009.07 1008.23 1008.23 1007.80 1006.29 1005.44 1006.49 1005.45 1006.98 1006.24 1007.69 1009.34 1010.56 1011.44 1013.32 1014.18
Wind_Speed
15 10 11 13 11 10 10 12 11 9 10 12 9 7 4 4 1 7 6 7 4 4
15 15 13 15 14 11 13 12 15 14 14 10 7 7 9 9 8 3 6 5 7 5
17 15 16 16 17 17 16 15 14 17 16 13 7 9 8 7 10 7 6 3 9 5
19 18 16 16 17 16 18 17 17 19 13 13 11 13 12 9 13 13 8 5 10 10
22 21 20 19 19 18 19 20 19 22 12 14 16 15 15 13 14 10 13 12 9 13
18 19 24 24 23 21 20 20 21 21 16 15 15 15 17 17 19 18 18 16 12 10
22 19 20 23 25 22 21 21 21 20 20 15 17 17 14 16 19 19 14 10 9 11
21 20 20 21 24 21 23 21 20 20 16 15 17 15 20 18 16 16 12 8 7 8
20 20 20 22 23 23 22 23 20 22 17 16 13 17 21 20 17 12 15 11 6 6
22 22 22 23 24 21 22 19 20 20 16 17 14 22 20 19 12 14 12 11 9 7
22 21 23 24 25 24 16 16 14 12 10 11 11 24 21 20 14 11 9 9 8 9
22 22 24 25 27 19 11 8 8 5 6 18 12 26 29 20 16 14 11 10 10 9
21 21 23 23 25 15 14 15 12 14 14 18 20 27 24 20 12 14 10 12 13 16
20 20 23 22 19 21 18 17 17 14 18 21 21 25 25 27 14 10 10 9 7 6
Wind_Direction
329 327 313 313 312 300 295 290 293 275 268 265 234 219 131 140 168 270 183 165 173 144
325 321 311 305 298 293 289 292 299 293 274 265 220 148 165 155 139 223 283 164 145 124
321 316 310 306 300 297 292 290 299 292 264 255 177 149 148 170 147 146 283 177 142 130
320 318 310 302 297 295 297 294 286 282 236 212 178 167 172 161 145 142 224 233 175 136
311 318 315 308 302 298 295 294 289 291 227 212 211 199 181 158 143 166 205 210 213 149
315 312 316 310 306 298 293 286 287 287 246 199 193 192 199 175 175 183 198 197 184 152
320 315 310 304 302 295 287 282 283 284 253 198 186 168 169 170 183 174 199 184 163 156
319 316 311 305 299 290 286 278 271 278 236 192 181 172 172 172 184 166 167 155 157 141
329 322 320 311 301 291 281 276 266 268 211 185 180 174 170 173 159 176 153 152 142 140
334 331 328 318 309 294 276 262 257 256 197 189 176 151 157 154 151 154 146 141 134 132
340 337 334 330 323 312 267 248 245 216 162 144 136 131 133 133 127 114 109 116 116 100
348 346 343 339 336 345 6 36 55 76 139 126 113 121 120 116 106 97 84 75 76 91
351 357 351 348 352 4 24 33 47 64 75 67 84 72 85 100 103 97 92 89 65 69
-0 4 6 357 1 8 26 41 35 36 56 66 52 67 62 75 78 82 87 78 84 60